Location: Dobrov�tov
(49.7882°N, 15.3279°E)
Time: 15:15:26
(UTC+00:00)

Daily predictions for brighter satellites

Satellite Brightness Start Highest point End
(mag) Time Altitude Azimuth Time Altitude Azimuth Time Altitude Azimuth
Cosmos 1745 Rocket 4.0 19:41:48 10° S 19:47:59 77° E 19:54:17 10° NNE
Landsat 7 3.9 19:44:11 10° SSE 19:48:54 69° ENE 19:53:39 10° N
USA 267 3.8 19:49:35 10° E 19:56:02 61° NNE 20:02:29 10° WNW
Meteor 1-21 Rocket 4.4 19:51:10 10° S 19:57:06 90° W 20:03:04 10° NNE
SPOT 1/Viking Rocket 3.6 19:52:11 10° SSE 19:57:18 70° ENE 20:02:28 10° N
Alouette 2 Rocket 3.6 19:56:49 10° N 20:00:32 72° ENE 20:05:25 10° SSE
Cosmos 1953 Rocket 4.1 19:57:11 10° SSE 20:01:13 40° E 20:05:17 10° NNE
Cosmos 2322 Rocket 2.8 19:57:15 10° SW 20:02:48 63° WNW 20:08:25 10° NNE
NOSS 7 (D) 3.6 20:02:02 10° SW 20:04:50 81° SE 20:07:30 10° NE
Cosmos 2237 4.2 19:59:44 10° SSW 20:05:28 84° ESE 20:11:15 10° NNE
Cosmos 2084 4.0 20:02:32 10° NW 20:06:56 54° NE 20:11:18 10° ESE
Cosmos 1328 3.8 20:03:37 10° S 20:07:33 68° E 20:11:31 10° NNE
SAR-Lupe-2 3.9 20:05:50 10° NNE 20:09:20 47° E 20:12:48 10° S
Cosmos 1455 3.1 20:07:52 10° NNW 20:11:35 48° W 20:15:18 10° S
Cosmos 1825 Rocket 3.6 20:12:27 10° S 20:16:54 85° E 20:21:24 10° N
ATLAS CENTAUR R/B 1.4 20:15:17 10° NW 20:18:58 59° NE 20:22:16 12° SE
Cosmos 1703 3.4 20:17:36 10° SSW 20:21:29 76° W 20:25:23 10° N
COSMOS 2428 3.2 20:17:28 10° S 20:22:41 39° ESE 20:27:55 10° NE
Cosmos 1844 4.0 20:18:13 10° NNW 20:23:57 66° WSW 20:29:32 10° SSE
SL-24 R/B - RUBIN 2 4.5 20:19:33 10° SSW 20:25:33 65° SE 20:32:09 10° NE
Cosmos 2322 3.7 20:20:50 10° SSW 20:26:30 67° ESE 20:32:12 10° NNE
Meteor 1-27 4.4 20:24:45 10° N 20:30:29 70° ENE 20:35:46 13° SSE
Cosmos 1869 4.3 20:27:13 10° N 20:30:52 34° ENE 20:33:50 14° SE
Cosmos 1709 Rocket 4.1 20:26:46 10° S 20:33:04 89° W 20:39:30 10° N
NOSS 3-3 (A) 4.2 20:29:30 10° SSW 20:35:05 48° ESE 20:41:22 10° NE
NOSS 3-3 (C) 4.2 20:29:37 10° SSW 20:35:12 47° ESE 20:41:29 10° NE
Terra 1.9 20:31:40 13° SSE 20:35:52 69° ENE 20:40:37 10° N
Cosmos 2237 Rocket 3.5 20:33:12 13° SE 20:36:34 22° E 20:40:47 10° NE
Atlas Centaur 2 4.2 20:33:55 10° SSW 20:36:52 13° S 20:38:47 12° SSE
CARTOSAT-1 3.7 20:32:57 11° S 20:37:03 77° WSW 20:41:24 10° NNW
Cosmos 2333 4.2 20:32:40 10° SSW 20:38:18 78° ESE 20:44:02 10° NNE
Cosmos 2219 Rocket 2.3 20:33:15 10° S 20:38:41 57° ESE 20:44:10 10° NE
Cosmos 2360 Rocket 2.8 20:35:07 10° SW 20:40:41 60° WNW 20:46:20 10° NNE
Cosmos 1538 Rocket 4.2 20:36:15 10° S 20:41:29 58° ESE 20:46:43 10° NNE
Cosmos 2184 Rocket 4.4 20:42:26 13° SSE 20:47:45 50° E 20:53:47 10° NNE
Cosmos 2333 Rocket 2.2 20:42:49 10° SSW 20:48:28 71° ESE 20:54:11 10° NNE
Cosmos 1315 Rocket 2.9 20:46:53 10° NNW 20:50:59 83° W 20:54:13 16° S
ATLAS 2AS CENTAUR R/B 3.4 20:44:18 10° NW 20:51:56 58° NE 20:58:55 10° ESE
Resurs 01 Rocket 4.2 20:50:08 10° WSW 20:52:35 15° W 20:55:03 10° NW
Cosmos 1818 4.3 20:50:51 10° WSW 20:56:12 58° NW 21:01:36 10° NE
Cosmos 773 Rocket 4.3 20:53:12 10° SSW 20:58:30 74° WNW 21:03:50 10° NNE
Cosmos 2221 2.6 20:55:03 10° N 20:59:28 70° E 21:02:29 19° SSE
ERS-1 Rocket 3.7 20:56:51 11° S 21:01:35 48° W 21:06:29 10° NNW
GEOS 3 Rocket 4.0 20:56:47 10° NE 21:02:10 71° NW 21:07:32 10° SW
USA 215 3.2 20:58:51 10° ENE 21:05:24 69° SE 21:11:56 10° SW
Cosmos 2278 Rocket 2.2 21:03:17 10° NNW 21:09:00 82° ENE 21:13:09 19° SSE
Cosmos 1892 3.2 21:07:02 22° SSE 21:09:00 41° E 21:12:36 10° NNE
ATLAS 5 CENTAUR R/B 2.7 21:08:48 10° WSW 21:12:55 47° NW 21:17:38 10° NE
Cosmos 1844 Rocket 4.4 21:08:56 10° NW 21:13:16 23° WSW 21:17:34 10° SSW
Aureole 2 Rocket 4.4 21:13:36 10° NNE 21:15:22 15° NE 21:17:00 11° E
Gblst 52 Del rocket 4.4 21:10:04 10° WNW 21:15:42 60° SSW 21:20:33 17° SE
Cosmos 1943 Rocket 4.2 21:12:17 10° N 21:16:41 22° NE 21:21:03 10° E
SPOT 5 3.9 21:13:56 12° SSW 21:18:21 39° W 21:22:53 10° NNW
SL-16 R/B 3.8 21:18:56 15° SE 21:20:57 18° E 21:24:42 10° ENE
Lacrosse 5 rocket 3.3 21:18:07 10° WNW 21:21:48 29° N 21:25:18 10° ENE
Spot 4 4.3 21:20:00 20° SE 21:23:05 52° ENE 21:27:44 10° N
Cosmos 2056 Rocket 4.2 21:18:31 10° NNW 21:23:47 50° ENE 21:27:39 18° SE
Nadezhda 3 Rocket 4.1 21:18:19 10° N 21:24:43 72° ENE 21:29:11 21° SSE
Cosmos 2058 2.9 21:25:00 23° S 21:27:28 68° E 21:31:36 10° NNE
Cosmos 2154 Rocket 4.1 21:23:04 19° S 21:27:32 63° E 21:33:41 10° NNE
Cosmos 1408 3.0 21:29:06 28° SSE 21:30:29 43° E 21:33:54 10° NNE
Meteor 2-17 Rocket 4.4 21:27:25 16° S 21:32:19 85° E 21:38:25 10° N
In-Cosmos 22 Rocket 4.0 21:29:55 18° S 21:33:54 83° E 21:39:15 10° NNE
Cosmos 2074 Rocket 4.1 21:29:15 13° SSW 21:34:53 77° W 21:41:09 10° N
TSX-5 3.9 21:32:14 10° NW 21:35:40 58° WSW 21:37:36 27° S
Cosmos 1076 Rocket 3.4 21:36:08 24° S 21:38:40 79° E 21:42:59 10° NNE
USA 267 3.3 21:34:05 19° SE 21:39:02 66° SW 21:45:36 10° WNW
Cosmos 1680 Rocket 3.6 21:35:41 20° S 21:39:16 62° ESE 21:44:33 10° NNE
CZ-4C R/B 4.2 21:39:09 10° NW 21:45:12 36° NNE 21:52:13 10° E
EO 1 Delta rocket 4.3 21:44:03 10° NNE 21:49:03 66° E 21:52:50 23° S
COSMOS 2455 4.0 21:43:25 10° NNW 21:49:04 39° NE 21:54:42 10° ESE
Cosmos 2151 3.5 21:47:18 28° SSE 21:49:09 46° E 21:53:15 10° NNE
Cosmos 923 Rocket 4.1 21:52:20 14° SSW 21:56:49 78° WNW 22:02:09 10° NNE
ATLAS CENTAUR R/B 3.1 21:55:06 10° WNW 21:57:25 16° WSW 21:58:26 15° SW
Cosmos 1825 2.2 21:58:09 35° SSE 21:59:35 66° E 22:03:21 10° NNE
ALOS 2 2.9 21:58:03 27° SE 22:00:17 58° ENE 22:04:37 10° N
Cosmos 1340 4.2 21:59:38 20° ESE 22:00:33 22° E 22:03:31 10° NE
Cosmos 1933 4.3 21:56:50 10° N 22:00:37 37° ENE 22:02:24 24° SE
Cosmos 1151 Rocket 3.7 21:57:00 10° N 22:01:10 43° ENE 22:03:13 25° SE
Cosmos 2369 Rocket 3.8 21:56:25 10° NNW 22:01:16 29° NE 22:06:06 10° ESE
Cosmos 1980 3.7 21:56:55 15° SSW 22:01:43 89° WNW 22:07:25 10° NNE
APEX 4.4 22:01:38 10° N 22:03:54 22° NE 22:05:07 17° E
Cosmos 44 3.8 22:05:15 29° SE 22:06:10 33° ESE 22:10:08 10° NE
COSMOS 2428 3.9 22:01:33 10° WSW 22:06:56 42° NW 22:12:21 10° NNE
Cosmos 371 Rocket 3.8 22:04:06 10° NNW 22:08:53 53° ENE 22:11:47 22° SE
GP-B 3.5 22:05:06 10° N 22:09:28 53° E 22:11:23 30° SSE
Cosmos 1295 Rocket 4.5 22:06:31 21° SSW 22:10:46 82° W 22:16:55 10° N
Terra 4.0 22:11:00 10° SW 22:14:07 17° W 22:17:14 10° NW
NOSS 0 Rocket 4.2 22:08:06 10° SW 22:14:14 69° NW 22:20:25 10° NNE
Cosmos 1624 Rocket 4.0 22:09:04 10° NNW 22:14:18 70° WSW 22:16:57 29° S
NOSS 3-4 (A) 4.0 22:08:14 10° NW 22:15:04 61° SW 22:19:47 24° SSE
NOSS 3-4 (C) 4.0 22:08:20 10° NW 22:15:11 62° SW 22:19:55 24° SSE
Nimbus 7 Rocket 4.4 22:13:00 10° NNE 22:18:56 70° ESE 22:22:22 26° S
SL-4 R/B 2.1 22:19:54 27° NE 22:19:54 27° NE 22:21:25 10° N
Cosmos 2237 Rocket 2.4 22:14:58 13° SW 22:20:02 73° WNW 22:25:47 10° NNE
Genesis I 3.1 22:18:35 25° SW 22:20:45 88° SE 22:24:41 10° NE
Cosmos 1782 4.3 22:18:15 10° N 22:21:43 28° ENE 22:23:34 20° ESE
CREW DRAGON DEMO-1 DEB 3.7 22:22:53 35° ESE 22:22:53 35° ESE 22:25:01 10° ENE
Cosmos 2344 3.5 22:16:02 13° SSW 22:22:49 73° SE 22:30:58 10° NE
Cosmos 2219 Rocket 3.9 22:18:00 10° WSW 22:22:58 31° NW 22:27:58 10° NNE
Cosmos 1346 Rocket 4.0 22:28:04 25° ESE 22:29:09 29° E 22:32:34 10° NNE
Thor Agena Rocket 4.0 22:24:41 10° N 22:29:43 58° WNW 22:33:19 19° SW
DELTA 2 R/B (1) 4.5 22:26:23 10° SW 22:36:22 - ESE 22:30:03 27° SSW
Cosmos 2333 Rocket 4.2 22:28:28 10° W 22:33:17 27° NW 22:38:11 10° NNE
RESURS DK-1 4.2 22:36:03 10° NNW 22:39:38 27° NE 22:43:12 10° ESE
Cosmos 1515 Rocket 3.7 22:37:03 10° N 22:41:23 63° ENE 22:43:15 32° SSE
BREEZE-M DEB (TANK) 2.6 22:39:09 10° W 22:41:22 29° WSW 22:41:22 29° WSW
ATLAS 2AS CENTAUR R/B 3.3 22:35:43 10° NW 22:42:49 46° WSW 22:46:25 26° S
EO 1 Del DPAF 4.5 22:39:23 10° N 22:42:50 35° WNW 22:44:59 19° WSW
Cosmos 1766 Rocket 3.6 22:44:24 32° SSW 22:46:23 72° WNW 22:50:49 10° N
USA 215 3.9 22:41:57 10° ENE 22:48:24 60° NNW 22:54:48 10° W
Cosmos 1328 Rocket 3.6 22:44:28 10° NNW 22:48:46 68° W 22:50:25 36° SSW
Aureole 2 Rocket 3.1 22:46:29 10° NW 22:48:59 31° WSW 22:48:59 31° WSW
Gbstr 26 Del rocket 3.6 22:49:28 31° SE 22:49:28 31° SE 22:52:53 10° E
Okean 3 Rocket 3.9 22:47:02 28° SSW 22:49:13 60° WNW 22:53:38 10° N
Cosmos 1606 3.3 22:47:20 10° NNW 22:51:04 46° W 22:52:19 33° SW
Cosmos 2278 Rocket 4.0 22:48:36 10° WNW 22:52:23 19° W 22:54:59 14° SW
Cosmos 2297 4.0 22:48:52 10° NW 22:54:29 56° WSW 22:57:11 29° S
Cosmos 2218 Rocket 4.0 22:50:54 26° S 22:54:41 85° W 23:01:02 10° N
Cosmos 304 Rocket 4.0 22:50:32 10° NNW 22:55:22 67° ENE 22:58:03 26° SE
Cosmos 864 Rocket 4.5 22:52:05 27° S 22:55:41 90° W 23:02:02 10° N
Cosmos 2228 Rocket 3.7 22:52:33 10° N 22:57:04 52° ENE 22:59:19 27° SE
Cosmos 1420 Rocket 4.2 22:53:03 10° NNW 22:58:13 57° WSW 23:00:36 31° S
Cosmos 2366 rocket 4.0 22:56:35 26° SSW 23:00:22 82° W 23:06:47 10° N
Cosmos 1943 Rocket 2.2 22:55:32 10° NNW 23:01:16 88° ENE 23:04:40 25° SSE
Lacrosse 5 rocket 1.9 22:57:38 10° NW 23:01:36 53° NNE 23:05:20 10° ESE
Cosmos 1633 2.7 23:01:11 43° SSE 23:02:06 61° E 23:05:41 10° NNE
Landsat 4 3.9 22:59:09 10° NNE 23:02:54 57° ESE 23:03:59 40° SSE
SL-16 R/B 2.2 23:00:47 24° SSW 23:04:20 83° WNW 23:10:05 10° NNE
Cosmos 1821 Rocket 4.4 23:05:52 25° SSE 23:09:17 53° E 23:15:12 10° NNE
YAOGAN 11 4.1 23:09:09 36° S 23:10:53 72° WSW 23:15:19 10° NNW
Cosmos 1743 Rocket 3.5 23:12:36 36° S 23:14:16 72° E 23:18:37 10° NNE
Sich 1 4.5 23:15:28 20° SE 23:17:22 28° E 23:21:03 10° NNE
Cosmos 332 Rocket 4.0 23:14:55 10° NNW 23:19:36 54° WSW 23:21:28 33° SSW
Cosmos 1331 Rocket 4.4 23:14:35 10° NNW 23:19:53 63° ENE 23:23:39 19° SE
Cosmos 1048 Rocket 4.1 23:19:32 31° S 23:22:04 66° ESE 23:27:18 10° NNE
USA 267 4.5 23:21:24 20° SW 23:22:54 21° SW 23:27:43 10° WNW
Meteor 2-3 Rocket 3.9 23:21:02 26° SSW 23:24:16 65° WNW 23:29:58 10° N
Helios 1A 3.7 23:24:53 31° SW 23:26:12 40° W 23:30:10 10° NNW
Cosmos 405 3.2 23:24:51 10° NNW 23:28:20 55° W 23:29:08 43° SW
Meteor 1-29 4.0 23:25:16 10° NNE 23:28:21 32° E 23:29:10 28° SE
Meteor 1-10 Rocket 4.3 23:26:49 10° N 23:32:26 74° ENE 23:35:50 24° SSE
Cosmos 1452 Rocket 4.1 23:27:58 10° NW 23:32:57 43° WSW 23:35:06 29° SSW
CZ-4C R/B 3.0 23:27:37 10° NW 23:34:40 85° NE 23:42:54 10° SE
PSLV R/B 3.5 23:30:35 10° NNE 23:34:49 81° ESE 23:36:34 35° S
Meteor 2-6 Rocket 4.1 23:29:20 10° NNW 23:34:52 90° W 23:37:54 27° S
Cosmos 389 Rocket 4.1 23:31:56 10° N 23:35:05 29° ENE 23:37:05 17° ESE
COSMOS 2455 3.0 23:29:22 10° NW 23:35:16 55° WSW 23:38:24 27° S
Cosmos 1340 4.0 23:34:23 22° WSW 23:36:00 32° WNW 23:39:26 10° N
ALOS 2 4.5 23:35:27 15° WSW 23:37:00 18° W 23:39:59 10° NW
Cosmos 1110 Rocket 4.0 23:31:44 10° NNW 23:37:02 89° WSW 23:40:16 25° SSE
SL-16 R/B 3.6 23:32:22 10° SE 23:38:07 41° ENE 23:43:57 10° N
Cosmos 1603 3.9 23:36:25 28° S 23:39:17 58° ESE 23:44:55 10° NE
Resurs 1-4 Rocket 3.7 23:40:49 10° NE 23:45:13 25° E 23:48:45 14° SE
Cosmos 2369 Rocket 2.2 23:40:11 10° NW 23:45:43 63° WSW 23:48:49 26° S
Cosmos 1500 Rocket 3.9 23:44:49 30° SW 23:46:48 58° WNW 23:51:09 10° N
Cosmos 44 4.1 23:43:37 13° WSW 23:47:17 41° NW 23:51:33 10° NNE
SeaSat 1 3.6 23:44:40 10° NE 23:49:02 31° ESE 23:51:20 21° SSE
ISS -2.1 23:51:00 21° SE 23:51:00 21° SE 23:53:02 10° E
Helios 1B rocket 2.4 23:49:28 10° NNE 23:53:36 78° WNW 23:55:23 33° SSW
ADEOS II 4.4 23:53:47 10° ENE 23:56:15 13° E 23:58:43 10° ESE
